Change the Weather History Date:

Saturday, November 10, 2012

  Actual Average (KMTO) Record (KMTO)
Temperature  
Mean Temperature 60 °F 46 °F  
Max Temperature 73 °F 55 °F 75 °F (1949)
Min Temperature 48 °F 37 °F 18 °F (1957)
Degree Days  
Heating Degree Days 4 19  
Month to date heating degree days 174  
Since 1 July heating degree days 578  
Cooling Degree Days 0 0  
Month to date cooling degree days 0  
Year to date cooling degree days 1057  
Growing Degree Days 10 (Base 50)    
Moisture  
Dew Point 45 °F    
Average Humidity 58    
Maximum Humidity 85    
Minimum Humidity 33    
Precipitation  
Precipitation 0.00 in 0.11 in 1.56 in (1985)
Month to date precipitation 1.13  
Year to date precipitation 32.93  
Sea Level Pressure  
Sea Level Pressure 30.04 in    
Wind  
Wind Speed 9 mph (SSE)    
Max Wind Speed 17 mph    
Max Gust Speed 26 mph    
Visibility 10 miles    
Events      
T = Trace of Precipitation, MM = Missing Value Source: NWS Daily Summary

Daily Weather History Graph

Daily Weather History Graph

Search for Another Location

Airport or City:

Trip Planner

Search our weather history database for the weather conditions in past years. The results will help you decide how hot, cold, wet, or windy it might be!

Date:

Astronomy

Nov. 10, 2012 Rise Set
Actual Time 6:32 AM CST 4:43 PM CST
Civil Twilight 6:03 AM CST 5:11 PM CST
Nautical Twilight 5:31 AM CST 5:43 PM CST
Astronomical Twilight 5:00 AM CST 6:15 PM CST
Moon 2:38 AM CST (11/10) 2:29 PM CST (11/10)
Length of Visible Light 11h 08m
Length of Day
10h 11m
Waning Crescent, 14% of the Moon is Illuminated
Nov 10
Waning Crescent
Nov 13
New
Nov 20
First Quarter
Nov 28
Full
Dec 6
Last Quarter

Hourly Weather History & Observations

Time (CST) Temp. Dew Point Humidity Pressure Visibility Wind Dir Wind Speed Gust Speed Precip Events Conditions
12:15 AM 55.8 °F 47.7 °F 74% 30.03 in 10.0 mi SSE 4.6 mph - N/A   Clear
12:35 AM 54.1 °F 46.9 °F 77% 30.04 in 10.0 mi SSE 4.6 mph - N/A   Clear
12:55 AM 53.6 °F 46.8 °F 78% 30.05 in 10.0 mi Calm Calm - N/A   Clear
1:15 AM 49.3 °F 44.6 °F 84% 30.05 in 10.0 mi SE 4.6 mph - N/A   Clear
1:35 AM 48.2 °F 43.9 °F 85% 30.06 in 10.0 mi ESE 5.8 mph - N/A   Clear
1:55 AM 48.6 °F 43.7 °F 83% 30.06 in 10.0 mi ESE 6.9 mph - N/A   Clear
2:15 AM 48.6 °F 43.0 °F 81% 30.06 in 10.0 mi ESE 6.9 mph - N/A   Clear
2:35 AM 49.1 °F 42.6 °F 78% 30.06 in 10.0 mi SE 5.8 mph - N/A   Clear
2:55 AM 48.7 °F 42.1 °F 78% 30.06 in 10.0 mi SE 6.9 mph - N/A   Clear
3:15 AM 49.1 °F 42.1 °F 77% 30.06 in 10.0 mi SE 8.1 mph - N/A   Clear
3:35 AM 49.1 °F 41.9 °F 76% 30.06 in 10.0 mi SE 6.9 mph - N/A   Clear
3:55 AM 49.1 °F 41.9 °F 76% 30.07 in 10.0 mi SE 6.9 mph - N/A   Scattered Clouds
4:15 AM 48.9 °F 41.5 °F 76% 30.07 in 10.0 mi SE 6.9 mph - N/A   Scattered Clouds
4:35 AM 49.1 °F 41.5 °F 75% 30.07 in 10.0 mi SE 6.9 mph - N/A   Scattered Clouds
4:55 AM 50.0 °F 41.9 °F 74% 30.07 in 10.0 mi SE 6.9 mph - N/A   Mostly Cloudy
5:15 AM 50.7 °F 41.9 °F 72% 30.07 in 10.0 mi SE 8.1 mph - N/A   Overcast
5:35 AM 51.1 °F 41.4 °F 69% 30.07 in 10.0 mi SSE 6.9 mph - N/A   Mostly Cloudy
5:55 AM 51.1 °F 41.2 °F 69% 30.07 in 10.0 mi SSE 8.1 mph - N/A   Mostly Cloudy
6:15 AM 51.8 °F 41.4 °F 68% 30.07 in 10.0 mi SSE 8.1 mph - N/A   Mostly Cloudy
6:35 AM 51.8 °F 41.5 °F 68% 30.07 in 10.0 mi SSE 9.2 mph - N/A   Overcast
6:55 AM 52.2 °F 41.9 °F 68% 30.07 in 10.0 mi SSE 8.1 mph - N/A   Overcast
7:15 AM 53.1 °F 42.1 °F 66% 30.08 in 10.0 mi SSE 6.9 mph - N/A   Overcast
7:35 AM 54.0 °F 42.8 °F 66% 30.08 in 10.0 mi South 9.2 mph - N/A   Overcast
7:55 AM 54.9 °F 43.5 °F 66% 30.08 in 10.0 mi South 8.1 mph - N/A   Overcast
8:15 AM 55.8 °F 44.4 °F 66% 30.08 in 10.0 mi SSE 8.1 mph - N/A   Overcast
8:35 AM 57.2 °F 44.6 °F 63% 30.08 in 10.0 mi South 8.1 mph - N/A   Overcast
8:55 AM 57.4 °F 45.7 °F 65% 30.08 in 10.0 mi South 9.2 mph - N/A   Scattered Clouds
9:15 AM 59.2 °F 46.4 °F 63% 30.07 in 10.0 mi South 11.5 mph - N/A   Scattered Clouds
9:35 AM 61.9 °F 47.7 °F 60% 30.06 in 10.0 mi South 9.2 mph 18.4 mph N/A   Clear
9:55 AM 63.7 °F 48.7 °F 58% 30.06 in 10.0 mi South 15.0 mph 19.6 mph N/A   Clear
10:15 AM 65.3 °F 49.6 °F 57% 30.06 in 10.0 mi South 11.5 mph 17.3 mph N/A   Clear
10:35 AM 66.0 °F 49.6 °F 55% 30.05 in 10.0 mi South 8.1 mph 21.9 mph N/A   Clear
10:55 AM 67.8 °F 49.1 °F 51% 30.04 in 10.0 mi South 13.8 mph 20.7 mph N/A   Clear
11:15 AM 69.8 °F 48.4 °F 46% 30.03 in 10.0 mi South 11.5 mph - N/A   Clear
11:35 AM 70.9 °F 46.2 °F 41% 30.02 in 10.0 mi SSW 12.7 mph 24.2 mph N/A   Clear
11:55 AM 72.0 °F 46.9 °F 41% 30.01 in 10.0 mi SSW 15.0 mph 18.4 mph N/A   Clear
12:15 PM 72.1 °F 46.0 °F 39% 30.01 in 10.0 mi South 16.1 mph 21.9 mph N/A   Clear
12:55 PM 73.6 °F 44.1 °F 35% 30.00 in 10.0 mi South 10.4 mph 23.0 mph N/A   Clear
1:15 PM 73.4 °F 44.8 °F 36% 30.00 in 10.0 mi South 15.0 mph 24.2 mph N/A   Clear
1:35 PM 73.4 °F 44.8 °F 36% 29.99 in 10.0 mi South 13.8 mph 18.4 mph N/A   Clear
1:55 PM 73.4 °F 43.3 °F 34% 29.99 in 10.0 mi South 17.3 mph 26.5 mph N/A   Clear
2:15 PM 73.6 °F 43.0 °F 33% 29.98 in 10.0 mi South 13.8 mph 23.0 mph N/A   Clear
2:35 PM 72.7 °F 44.2 °F 36% 29.99 in 10.0 mi South 15.0 mph 25.3 mph N/A   Clear
2:55 PM 72.1 °F 45.9 °F 39% 29.99 in 10.0 mi South 15.0 mph 23.0 mph N/A   Clear
3:15 PM 71.6 °F 47.1 °F 42% 30.00 in 10.0 mi South 11.5 mph 18.4 mph N/A   Clear
3:35 PM 70.9 °F 47.3 °F 43% 30.00 in 10.0 mi South 13.8 mph 20.7 mph N/A   Clear
3:55 PM 70.0 °F 47.5 °F 45% 30.00 in 10.0 mi South 16.1 mph 23.0 mph N/A   Clear
4:15 PM 69.3 °F 47.8 °F 46% 30.01 in 10.0 mi South 13.8 mph 19.6 mph N/A   Clear
4:35 PM 68.4 °F 48.2 °F 48% 30.01 in 10.0 mi South 13.8 mph 17.3 mph N/A   Clear
4:55 PM 67.6 °F 48.6 °F 50% 30.02 in 10.0 mi SSE 10.4 mph 19.6 mph N/A   Clear
5:15 PM 67.1 °F 48.6 °F 51% 30.03 in 10.0 mi South 12.7 mph 19.6 mph N/A   Clear
5:35 PM 66.2 °F 48.7 °F 53% 30.04 in 10.0 mi South 10.4 mph 16.1 mph N/A   Clear
5:55 PM 65.5 °F 48.7 °F 55% 30.05 in 10.0 mi South 11.5 mph - N/A   Clear
6:15 PM 64.9 °F 48.6 °F 55% 30.05 in 10.0 mi SSE 9.2 mph - N/A   Clear
6:35 PM 64.4 °F 48.2 °F 56% 30.04 in 10.0 mi SSE 10.4 mph 16.1 mph N/A   Clear
6:55 PM 63.9 °F 47.8 °F 56% 30.05 in 10.0 mi South 11.5 mph 17.3 mph N/A   Clear
7:15 PM 63.7 °F 47.3 °F 55% 30.06 in 10.0 mi South 11.5 mph 17.3 mph N/A   Clear
7:35 PM 63.9 °F 46.8 °F 54% 30.06 in 10.0 mi South 11.5 mph - N/A   Clear
7:55 PM 63.5 °F 46.4 °F 54% 30.06 in 10.0 mi SSE 10.4 mph 18.4 mph N/A   Clear
8:15 PM 62.4 °F 46.4 °F 56% 30.05 in 10.0 mi SSE 10.4 mph - N/A   Clear
8:35 PM 61.7 °F 46.0 °F 56% 30.05 in 10.0 mi SSE 10.4 mph - N/A   Clear
8:55 PM 60.8 °F 45.9 °F 58% 30.05 in 10.0 mi SSE 10.4 mph - N/A   Clear
9:15 PM 60.4 °F 46.4 °F 60% 30.05 in 10.0 mi SSE 11.5 mph 19.6 mph N/A   Clear
9:35 PM 60.3 °F 45.7 °F 59% 30.04 in 10.0 mi South 10.4 mph 16.1 mph N/A   Clear
9:55 PM 61.2 °F 44.1 °F 53% 30.04 in 10.0 mi South 12.7 mph 21.9 mph N/A   Clear
10:15 PM 61.7 °F 42.8 °F 50% 30.03 in 10.0 mi South 13.8 mph 21.9 mph N/A   Clear
10:35 PM 62.1 °F 41.9 °F 48% 30.03 in 10.0 mi South 12.7 mph 20.7 mph N/A   Clear
10:55 PM 62.1 °F 41.5 °F 47% 30.03 in 10.0 mi South 16.1 mph 24.2 mph N/A   Clear
11:15 PM 62.1 °F 41.4 °F 47% 30.03 in 10.0 mi South 15.0 mph 21.9 mph N/A   Clear
11:35 PM 61.7 °F 41.5 °F 48% 30.02 in 10.0 mi South 15.0 mph 21.9 mph N/A   Clear
11:55 PM 61.2 °F 41.9 °F 49% 30.02 in 10.0 mi South 12.7 mph 20.7 mph N/A   Clear